Regional Weather Roundup
Issued by NWS

Home | Current Version | Previous Version | Graphics & Text | Print | Product List | Glossary On
Versions: 1 2 3 4 5 6 7 8 9 10 11 12 13 14 15 16 17 18 19 20 21 22 23 24 25 26 27 28 29 30 31 32 33 34 35 36 37 38 39 40 41 42 43 44 45 46 47 48 49 50
000
ASUS43 KMKX 301000
RWRWI

WISCONSIN REGIONAL WEATHER ROUNDUP
NATIONAL WEATHER SERVICE MILWAUKEE/SULLIVAN WI
500 AM CDT SUN AUG 30 2015

NOTE: "FAIR" INDICATES FEW OR NO CLOUDS BELOW 12,000 FEET WITH NO
SIGNIFICANT WEATHER AND/OR OBSTRUCTIONS TO VISIBILITY.

WIZ001-002-006>008-014>016-023>028-301100-
NORTHWEST WISCONSIN

CITY           SKY/WX    TMP DP  RH WIND       PRES   REMARKS
SUPERIOR ARPT  CLOUDY    61  61 100 SW3       29.95S
ASHLAND        CLOUDY    63  63 100 S9        29.98S
HAYWARD        CLOUDY    63  61  93 S7        30.01S
SIREN          CLOUDY    63  62  96 SW6       30.00S
CUMBERLAND     CLOUDY    59  57  94 S5        30.01F FOG
RICE LAKE      CLOUDY    58  57  95 SE3       30.03S FOG
CHETEK         CLOUDY   N/A N/A N/A CALM      30.03S
LADYSMITH      CLEAR     60  58  94 SE3       30.05S
EAU CLAIRE     CLEAR     58  55  90 CALM      30.02R
MENOMONIE      FOG       56  56 100 CALM      30.03R VSB 1/4
NEW RICHMOND   CLEAR     59  59  99 CALM      30.01S
OSCEOLA        CLOUDY    62  62 100 S5        30.03S
$$

WIZ003>005-009-010-017-018-301100-
NORTH CENTRAL WISCONSIN

CITY           SKY/WX    TMP DP  RH WIND       PRES   REMARKS
MANITOWISH WTR CLOUDY    60  60 100 SW8       30.04S
ARBOR VITAE    CLOUDY    59  58  96 CALM      30.05S FOG
WOODRUFF       CLOUDY    59  58  96 CALM      30.05S FOG
RHINELANDER    CLOUDY    58  57  97 W6        30.07R FOG
EAGLE RIVER    CLOUDY    59  59 100 SW6       30.05S FOG
LAND O LAKES   CLOUDY    61  61  99 SW7       30.05S FOG
PHILLIPS       PTCLDY    57  57 100 S3        30.04S
TOMAHAWK       FOG       53  53  97 CALM      30.06S VSB 1/4
MEDFORD        FOG       51  51 100 CALM      30.05S VSB<1/4
MERRILL        FOG       51  51 100 CALM      30.06F VSB 1/2
$$

WIZ029-030-035-036-043>047-301100-
CENTRAL WISCONSIN

CITY           SKY/WX    TMP DP  RH WIND       PRES   REMARKS
WAUSAU         FOG       52  51  97 CALM      30.04F VSB 1/2
MOSINEE        CLEAR     52  52 100 CALM      30.07R FOG
MARSHFIELD     PTCLDY    54  51  90 CALM      30.05S FOG
STEVENS POINT  CLEAR     51  51  99 CALM      30.06S FOG
WAUPACA        FOG       54  53  95 CALM      30.06R VSB 1
WAUTOMA        FOG       57  57 100 CALM      30.06S VSB<1/4
WISC RAPIDS    PTCLDY    55  54  96 CALM      30.06S FOG
CAMP DOUGLAS   FOG       55  55 100 CALM      30.05S VSB 1/4
$$

WIZ011>013-019>022-031-037>040-048>050-301100-
NORTHEAST WISCONSIN

CITY           SKY/WX    TMP DP  RH WIND       PRES   REMARKS
ANTIGO         FOG       51  51 100 CALM      30.07S VSB 1/4
SHAWANO        FOG       55  54  96 CALM      30.06R VSB 3/4
OCONTO         CLOUDY    52  52 100 CALM      30.04S VSB 1/2
STURGEON BAY   CLOUDY    55  52  88 CALM      30.07S VSB<1/4
GREEN BAY      FOG       58  57  97 CALM      30.05S VSB 1/4
MANITOWOC      NOT AVBL
APPLETON       MOCLDY    57  57 100 NW5       30.04S FOG
CLINTONVILLE   FOG       52  50  93 CALM      30.05S VSB 1/4
OSHKOSH        FOG       57  56  96 CALM      30.05R VSB 1/4
$$

WIZ032>034-041-042-053>061-301100-
SOUTHWEST WISCONSIN

CITY           SKY/WX    TMP DP  RH WIND       PRES   REMARKS
LA CROSSE      CLEAR     58  57  97 SE6       30.04R
SPARTA         CLEAR     56  55  96 CALM      30.06R
VIROQUA          N/A     59  59 100 SE3       30.05S
BOSCOBEL       FOG       61  60  97 CALM      30.05S VSB 1/4
PRAIRIE DU CHI FOG       60  58  96 CALM      30.04S VSB 1/4
PLATTEVILLE    PTCLDY    63  61  92 E6        30.05S
$$

WIZ056-057-062-063-064-067-068-301100-
SOUTH CENTRAL WISCONSIN

CITY           SKY/WX    TMP DP  RH WIND       PRES   REMARKS
REEDSBURG      CLOUDY    58  58 100 CALM      30.05S
BARABOO/DELLS  CLOUDY    60  58  95 CALM      30.06R
LONE ROCK      NOT AVBL
MINERAL POINT  CLOUDY    64  59  82 CALM      30.06S
MADISON        CLOUDY    63  61  93 CALM      30.05R FOG
MIDDLETON      CLOUDY    64  64  99 CALM      30.06R
WATERTOWN      CLOUDY    62  62 100 CALM      30.05R FOG
MONROE         CLOUDY    63  61  94 CALM      30.05S
JANESVILLE     CLOUDY    64  63  94 CALM      30.04S FOG
$$

WIZ051-052-058>065-066-070>072-301100-
SOUTHEAST WISCONSIN

CITY           SKY/WX    TMP DP  RH WIND       PRES   REMARKS
MILWAUKEE      FOG       63  62  97 CALM      30.04R VSB 1/4
WAUKESHA       CLOUDY    59  59 100 CALM      30.06R FOG
MILWAUKEE/TIMM CLOUDY    61  59  94 CALM      30.05S FOG
RACINE         FOG       63  61  93 NW7       30.06R VSB 1/4
BURLINGTON     CLOUDY    61  60  99 CALM      30.05R FOG
KENOSHA        CLOUDY    63  62  97 NW5       30.05R FOG
FOND DU LAC    FOG       59  58  96 CALM      30.05S VSB 1/4
SHEBOYGAN      FOG       55  54  96 CALM      30.05R VSB 1/4
WEST BEND      FOG       55  55 100 CALM      30.05R VSB<1/4
JUNEAU         FOG       59  58  99 CALM      30.06S VSB<1/4
$$

LSZ147-162-301100-
LAKE SUPERIOR

STATION/POSITION TIME  TEMP    WIND        PRES    WAVE
                       AIR SEA DIR/SP/G            HT/PER
                 (UTC) (F)     (DEG/KT/KT) (MB)    (FT/S)
W MID LAKE BUOY  0850   59 54  200/ 12/ 14 1013.8F   1
DEVILS ISLAND    0900   65     190/  9/ 10 1014.1F
PORT WING        0900   64     210/  3/  6 1014.6S
SAXON HARBOR     0900   64     200/  6/ 14 1014.2
$$

LMZ867-665-643>646-301100-
LAKE MICHIGAN

STATION/POSITION TIME  TEMP    WIND        PRES    WAVE
                       AIR SEA DIR/SP/G            HT/PER
                 (UTC) (F)     (DEG/KT/KT) (MB)    (FT/S)
CHAMBERS ISLAND  0900   59     190/  2/  4 1017.3S
S GREEN BAY BUOY 0900   61 62  240/  4/  4 1018.7R
N MID LAKE BUOY  0850   63 64  220/  6/  8 1016.8F   1
NORTHPORT PIER   0903   61     260/  3/  7 1016.9S
SISTER BAY       0949   61        CALM       N/A
ALGOMA LAKESHORE 0914             CALM       N/A
SHEBOYGAN LAKESH 0900   54     360/  2/  3 1017.6S
PORT WASHINGTON  0940   61     320/  2/  6 1017.9R
ATWATER BUOY     0900   54 49  330/  6/  6 1018.4R
MILWAUKEE LAKESH 0900   61     340/  4/  6   N/A
S MID LAKE BUOY  0950   67 68  360/ 10/ 12 1015.9R
KENOSHA   LAKESH 0900   63     330/  6/  9 1016.6S
$$

TC  - TEMPERATURE IN CELSIUS
VSB - VISIBILITY IN STATUTE MILES
WCI - WIND CHILL INDEX
HX  - HEAT INDEX



USA.gov is the U.S. government's official web portal to all federal, state and local government web resources and services.